Albuquerque Double Eagle, NM

7:16 PM MDT on October 20, 2017 (GMT -0600)
Double Eagle Ii

Weather History for KAEG - October, 2011

Change the Weather History Date:

Friday, October 28, 2011

  Actual Average (KABQ) Record (KABQ)
Temperature  
Mean Temperature 44 °F -  
Max Temperature 55 °F 64 °F 79 °F (1950)
Min Temperature 32 °F 38 °F 22 °F (1915)
Degree Days  
Heating Degree Days 22    
Moisture  
Dew Point 28 °F    
Average Humidity 67    
Maximum Humidity 100    
Minimum Humidity 31    
Precipitation  
Precipitation 0.00 in - - ()
Sea Level Pressure  
Sea Level Pressure 30.27 in    
Wind  
Wind Speed 3 mph (NW)    
Max Wind Speed 8 mph    
Max Gust Speed -    
Visibility 10 miles    
Events      
Averages and records for this station are not official NWS values.
T = Trace of Precipitation, MM = Missing Value Source: NWS Daily Summary

Daily Weather History Graph

Daily Weather History Graph

Search for Another Location

Airport or City:

Trip Planner

Search our weather history database for the weather conditions in past years. The results will help you decide how hot, cold, wet, or windy it might be!

Date:

Astronomy

Oct. 28, 2011 Rise Set
Actual Time 7:24 AM MDT 6:16 PM MDT
Civil Twilight 6:58 AM MDT 6:42 PM MDT
Nautical Twilight 6:28 AM MDT 7:12 PM MDT
Astronomical Twilight 5:59 AM MDT 7:42 PM MDT
Moon 9:36 AM MDT (10/28) 7:49 PM MDT (10/28)
Length of Visible Light 11h 44m
Length of Day
10h 52m
Waxing Crescent, 5% of the Moon is Illuminated
Oct 28
Waxing Crescent
Nov 2
First Quarter
Nov 10
Full
Nov 18
Last Quarter
Nov 24
New

Hourly Weather History & Observations

Time (MDT) Temp. Windchill Dew Point Humidity Pressure Visibility Wind Dir Wind Speed Gust Speed Precip Events Conditions
12:15 AM 32.0 °F - 32.0 °F 100% 30.20 in 10.0 mi Calm Calm - N/A   Clear
12:35 AM 33.8 °F 28.6 °F 33.8 °F 100% 30.20 in 10.0 mi West 5.8 mph - N/A   Clear
12:55 AM 35.6 °F 29.9 °F 32.0 °F 87% 30.20 in 10.0 mi West 6.9 mph - N/A   Clear
1:15 AM 35.6 °F 29.2 °F 32.0 °F 87% 30.21 in 10.0 mi WNW 8.1 mph - N/A   Clear
1:35 AM 35.6 °F 29.2 °F 32.0 °F 87% 30.21 in 10.0 mi WNW 8.1 mph - N/A   Clear
2:15 AM 35.6 °F 30.7 °F 32.0 °F 87% 30.22 in 10.0 mi WNW 5.8 mph - N/A   Clear
2:35 AM 35.6 °F 29.2 °F 30.2 °F 81% 30.22 in 10.0 mi WNW 8.1 mph - N/A   Clear
2:55 AM 35.6 °F 29.2 °F 30.2 °F 81% 30.23 in 10.0 mi NW 8.1 mph - N/A   Clear
3:15 AM 33.8 °F - 30.2 °F 87% 30.23 in 10.0 mi Calm Calm - N/A   Clear
3:35 AM 32.0 °F - 30.2 °F 93% 30.23 in 10.0 mi Calm Calm - N/A   Clear
4:15 AM 32.0 °F - 30.2 °F 93% 30.22 in 10.0 mi Calm Calm - N/A   Clear
4:35 AM 32.0 °F - 28.4 °F 87% 30.23 in 10.0 mi Calm Calm - N/A   Clear
4:55 AM 33.8 °F 28.6 °F 32.0 °F 93% 30.24 in 10.0 mi NNE 5.8 mph - N/A   Clear
5:15 AM 35.6 °F 29.9 °F 28.4 °F 75% 30.25 in 10.0 mi North 6.9 mph - N/A   Clear
5:35 AM 35.6 °F 31.7 °F 26.6 °F 70% 30.25 in 10.0 mi NW 4.6 mph - N/A   Clear
5:50 AM 32.0 °F 28.7 °F 26.6 °F 80% 30.25 in 10.0 mi WNW 3.5 mph - N/A   Clear
6:50 AM 35.6 °F - 24.8 °F 65% 30.27 in 10.0 mi Calm Calm - N/A   Clear
7:50 AM 35.6 °F - 23.0 °F 60% 30.29 in 10.0 mi Calm Calm - N/A   Clear
8:50 AM 39.2 °F 35.9 °F 24.8 °F 56% 30.33 in 10.0 mi North 4.6 mph - N/A   Clear
9:50 AM 41.0 °F - 28.4 °F 61% 30.34 in 10.0 mi Calm Calm - N/A   Clear
10:50 AM 46.4 °F 43.5 °F 26.6 °F 46% 30.34 in 10.0 mi NNW 5.8 mph - N/A   Clear
11:50 AM 48.2 °F - 24.8 °F 40% 30.34 in 10.0 mi Calm Calm - N/A   Clear
12:50 PM 51.8 °F - 28.4 °F 41% 30.32 in 10.0 mi Calm Calm - N/A   Clear
1:45 PM 53.6 °F - 35.6 °F 51% 30.30 in 10.0 mi Variable 4.6 mph - N/A   Partly Cloudy
2:50 PM 53.6 °F - 28.4 °F 38% 30.29 in 10.0 mi Calm Calm - N/A   Clear
3:50 PM 55.4 °F - 26.6 °F 33% 30.29 in 10.0 mi Calm Calm - N/A   Partly Cloudy
4:50 PM 55.4 °F - 24.8 °F 31% 30.28 in 10.0 mi Calm Calm - N/A   Partly Cloudy
5:50 PM 53.6 °F - 26.6 °F 35% 30.28 in 10.0 mi Calm Calm - N/A   Clear
6:50 PM 46.4 °F - 26.6 °F 46% 30.29 in 10.0 mi Calm Calm - N/A   Clear
7:50 PM 42.8 °F - 26.6 °F 53% 30.29 in 10.0 mi Calm Calm - N/A   Clear
8:50 PM 37.4 °F - 26.6 °F 65% 30.29 in 10.0 mi Calm Calm - N/A   Clear
10:15 PM 37.4 °F - 23.0 °F 56% 30.31 in 10.0 mi Calm Calm - N/A   Clear
10:35 PM 35.6 °F - 24.8 °F 65% 30.31 in 10.0 mi Calm Calm - N/A   Clear
10:55 PM 37.4 °F - 24.8 °F 60% 30.30 in 10.0 mi Calm Calm - N/A   Clear
11:15 PM 37.4 °F - 24.8 °F 60% 30.30 in 10.0 mi Calm Calm - N/A   Clear
11:35 PM 35.6 °F - 23.0 °F 60% 30.30 in 10.0 mi Calm Calm - N/A   Clear